Starlink 5142

operational
NORAD ID: 53984 Int'l Des: 2022-125 Owner: SPXS Country: US Constellation: starlink
LEOCIRCULAR

About Starlink 5142

Description loading...

Live Position

Loading 3D Globe...

Upcoming Passes

Altitude History

Altitude vs Time

uPlot chart will show altitude changes over time

Two-Line Element Set

1 53984U 22125W 25303.08606630 -.00000531 00000-0 -15271-4 0 9994
2 53984 53.2179 80.5758 0001433 89.9557 270.1599 15.08835883169744
Epoch: Oct 30, 2025 • Age: 20 hours

Current Status

Altitude 544.4 km
Velocity 7.60 km/s
Sub-Earth Point 48.96°N, 165.61°W
Launch Date Oct 5, 2022
Age 3 years
Type internet

Technical Details

Classification Payload
Mass 305.00 kg
Dry Mass 290.00 kg
Total Mass 305.00 kg
Length 0.20 m
Diameter 2.80 m
Span 9.00 m
Shape Box + pan
Manufacturer SPXS
Bus Type Starlink
Phase Status In Orbit
Owner/State SPXS/US

Large Constellations

Loading constellations...